Location: Heisler
(52.6701°N, 112.2239°W)
Time: 13:38:20
(UTC+00:00)

Envisat - Pass Details

Date: 05 December 2021
Orbit: 764 x 766 km, 98.2° (Epoch: 26 January)

Event Time Altitude Azimuth Distance (km) Brightness Sun altitude
Rises 01:12:22 0° 221° (SW) 3,225 7.2 -16.6°
Reaches altitude 10° 01:16:04 10° 249° (WSW) 2,306 6.8 -17.1°
Maximum altitude 01:18:20 13° 276° (W) 2,112 6.3 -17.5°
Drops below altitude 10° 01:20:36 10° 303° (WNW) 2,314 6.1 -17.8°
Sets 01:24:20 0° 331° (NNW) 3,247 6.5 -18.3°
